STARLINK-32453, 61671

Orbit data source: Space-Track

STARLINK-32453, 61671 is a payload satellite owned by SpaceX/Seattle (US) in LEO that was launched on Sat, 26 Oct 2024 UTC via an FALCON 9 launch vehicle from the Air Force Eastern Test Range (AFETR). Payloads include a variety of satellites, spacecraft, and rockets equipped with specific instruments for various scientific and technological missions. These include communications satellites like Starlink; space stations such as the ISS; scientific satellites like the Hubble; Earth observation satellites from companies like Planet Labs, Umbra, and HawkEye 360; GPS; miniature CubeSats for education and research; and military/defense satellites.

Loading next visibility...
STARLINK-32453 details
Identifier
61671, 2024-193L
Orbit
LEO
Last TLE update13 hours ago
Origin
Flag of USSpaceX/Seattle (US)
ManufacturerSpaceX/Seattle
MissionOperational spacecraft
Bus & MotorSTARLINK V2M, Unknown motor
Mass730 kg wet, ~700 kg dry
Launch date (UTC)
2024-10-26 (2 months ago)
Launch vehicle
FALCON 9
Launch site
Air Force Eastern Test Range (AFETR)
Object type
Payload
Rocket body
Debris
Shape & HBRUnknown
Radar Cross SectionLarge (>1 m²)

Expand to show TLE details & history

TLE from 13 hours ago
0 STARLINK-32453
1 61671U 24193L   24361.35097902 -.00001199  00000-0 -20018-4 0  9998
2 61671  53.1614 329.2790 0000905  93.6489 266.4619 15.39609423  9384
Epoch: 2024-12-26T08:25Z
Definitive object data (Epoch: 2024-12-26T08:25:24.587Z)
Latitude-0.00004°
Longitude107.5949°
Altitude448.205 km
Speed7.645 km/s
True Right ascension21h 57m 06s
True Declination0° 00' 00"
Sunlit
Object was in daylight at TLE epoch
Visualization TLE readout
Latitude48.99454°
Longitude-133.91053°
Altitude452.255 km
Speed7.647 km/s
Apparent Right ascension07h 21m 52s
Apparent Declination6° 55' 53"
Sunlit
Object is in full shadow
Visualization observer readout
Local Sidereal Time20:44:41
Azimuth27.016° NE
Elevation-39.402°
Doppler factor1
Orbital elements
Apogee altitude448.138 km
Perigee altitude446.903 km
Semi-major axis6,825.658 km
Eccentricity0.0000905
Inclination53.1614°
RAAN329.279°
Arg. of periapsis93.6489°
True anomaly266.45155°
Mean anomaly266.4619°
Eccentric anomaly266.45672°
Mean motion3.84881 °/min
BSTAR-0.000020018
Orbital period93.54 mins
Loading maneuver chart data...
Loading historical data...
Loading historical data...
Loading historical data...
Loading historical data...
Loading historical data...
Loading historical data...
Loading historical data...

STARLINK-32453 Visibility forecast

Observer location: undefined°, undefined

Span
Click to sort rows by Start time (UTC) header in descending order
Start Az.
Max El. time (UTC)
Max El. Az.
Max El.
End time (UTC)
End Az.
5 mins2024-12-27 00:09:42.892Z193.274° SSW2024-12-27 00:12:42.892Z121.454° SE27.407°2024-12-27 00:14:42.892Z75.935° E
5 mins2024-12-27 01:47:42.892Z277.706° WNW2024-12-27 01:49:42.892Z329.908° NNW26.689°2024-12-27 01:52:42.892Z32.059° NE
5 mins2024-12-27 06:42:42.892Z338.932° N2024-12-27 06:44:42.892Z30.24° NE26.57°2024-12-27 06:47:42.892Z93.175° ESE
4 mins2024-12-27 08:20:42.892Z268.212° W2024-12-27 08:21:42.892Z238.5° WSW27.58°2024-12-27 08:24:42.892Z166.435° S
|